Погода в Рыбалове

Россия / Томская область     56°29′57″N   84°30′50″E
темп.,
°C
ветер,
м/с
пор.,
м/с
влажн.,
%
обл.,
%
осадки,
мм/ч
давл.,
гПа
погр.,
м
22 октября, пт
пт2201:00+5ю3776100 0.0 1010118
04:00+5ю3877100 0.0 1009130
07:00+5ю31171100 0.0 1008240
10:00+7ююз51364100 0.0 1009539
13:00+5юз71281100 0.2 10121117
16:00+6юз61359100 0.0 10141541
19:00+4юз71363100 0.1 10171532
22:00+3юз6136968 0.0 10191079
23 октября, сб
сб2301:00+2ююз512725 0.0 1020904
04:00+2ююз61461100 0.0 1020877
07:00+3ююз6146075 0.0 10191029
10:00+3ююз7155888 0.0 10181354
13:00+4ююз8156598 0.0 10161184
16:00+3ююз81676100 0.0 10141116
19:00+2ююз81896100 4.0 10121038
22:00+3юз81896100 2.5 10111097
24 октября, вс
вс2401:00+6юз7158499 2.8 1010946
04:00+6юз71480100 0.0 1011935
07:00+6юз71483100 0.1 1012977
10:00+6зюз71483100 0.1 10121072
13:00+7зюз613775 0.4 10131057
16:00+7з5127788 0.3 10151247
19:00+6з512765 0.4 1018606
22:00+4зюз2886100 0.0 1020197
25 октября, пн
пн2501:00+5ююз3894100 0.0 1020245
04:00+5ююз3995100 0.0 1019302
07:00+6ю41392100 0.0 1017496
10:00+8ююз61689100 0.9 1014779
13:00+10юз71672100 0.9 10121056
16:00+10юз71562100 0.0 10121024
19:00+8зюз613709 0.0 1014877
22:00+6з5127434 0.0 1017708
26 октября, вт
вт2601:00+4з378645 0.0 1019240
04:00+2з2294100 0.0 102024
07:00+1ююв2293100 0.0 102018
10:00+3ююв2788100 0.0 1018217
13:00+6ююв4108095 0.0 1015387
16:00+8ю41069100 0.0 1012524
19:00+7ю41279100 0.0 1010345
22:00+7ю41474100 0.0 1007442